| time (UTC) | temp F | wind direction | speed MPH | gust MPH | rain 1hr in | rain 24hr in | rain mn in | humidity % | barometer mb |
| 20260831054028 | 78 | 90 | 8.0 | 14.0 | 0.00 | 0.00 | 0.00 | 30 | 1022.8 |
| 20260831053527 | 78 | 112 | 7.0 | 14.0 | 0.00 | 0.00 | 0.00 | 30 | 1022.8 |
| 20260831053023 | 78 | 90 | 11.0 | 13.0 | 0.00 | 0.00 | 0.00 | 30 | 1022.9 |
| 20260831052521 | 78 | 90 | 16.0 | 16.0 | 0.00 | 0.00 | 0.00 | 31 | 1022.9 |
| 20260831052019 | 78 | 90 | 9.0 | 9.0 | 0.00 | 0.00 | 0.00 | 31 | 1022.8 |
| 20260831051517 | 79 | 135 | 7.0 | 10.0 | 0.00 | 0.00 | 0.00 | 31 | 1023.0 |
| 20260831051013 | 78 | 45 | 10.0 | 11.0 | 0.00 | 0.00 | 0.00 | 31 | 1023.0 |
| 20260831050511 | 79 | 45 | 7.0 | 12.0 | 0.00 | 0.00 | 0.00 | 30 | 1023.0 |
| 20260831050008 | 78 | 90 | 4.0 | 15.0 | 0.00 | 0.00 | 0.00 | 30 | 1023.0 |
| 20260831045657 | 78 | 112 | 12.0 | 14.0 | 0.00 | 0.00 | 0.00 | 30 | 1023.0 |
| 20260831045155 | 78 | 67 | 8.0 | 9.0 | 0.00 | 0.00 | 0.00 | 31 | 1023.1 |
| 20260831044654 | 78 | 90 | 4.0 | 12.0 | 0.00 | 0.00 | 0.00 | 32 | 1023.2 |
| 20260831043649 | 78 | 78 | 5.0 | 9.0 | 0.00 | 0.00 | 0.00 | 32 | 1023.2 |
| 20260831043146 | 78 | 67 | 8.0 | 9.0 | 0.00 | 0.00 | 0.00 | 31 | 1023.3 |
| 20260831042644 | 78 | 157 | 12.0 | 12.0 | 0.00 | 0.00 | 0.00 | 31 | 1023.2 |
| 20260831042541 | 78 | 135 | 3.0 | 15.0 | 0.00 | 0.00 | 0.00 | 32 | 1023.3 |
| 20260831042309 | 78 | 90 | 13.0 | 15.0 | 0.00 | 0.00 | 0.00 | 31 | 1023.3 |
| 20260831041807 | 78 | 135 | 7.0 | 17.0 | 0.00 | 0.00 | 0.00 | 32 | 1023.4 |
| 20260831041504 | 78 | 90 | 16.0 | 16.0 | 0.00 | 0.00 | 0.00 | 32 | 1023.4 |
| 20260831041124 | 78 | 45 | 7.0 | 13.0 | 0.00 | 0.00 | 0.00 | 31 | 1023.3 |
| 20260831040620 | 78 | 135 | 11.0 | 13.0 | 0.00 | 0.00 | 0.00 | 32 | 1023.5 |
| 20260831040119 | 77 | 135 | 6.0 | 15.0 | 0.00 | 0.00 | 0.00 | 32 | 1023.6 |
| 20260831035857 | 77 | 45 | 15.0 | 15.0 | 0.00 | 0.00 | 0.00 | 33 | 1023.6 |
| 20260831035434 | 77 | 56 | 4.0 | 14.0 | 0.00 | 0.00 | 0.00 | 35 | 1023.8 |
| 20260831034930 | 77 | 90 | 8.0 | 17.0 | 0.00 | 0.00 | 0.00 | 34 | 1023.9 |
| 20260831034610 | 76 | 135 | 17.0 | 17.0 | 0.00 | 0.00 | 0.00 | 34 | 1023.9 |
| 20260831034318 | 76 | 112 | 4.0 | 9.0 | 0.00 | 0.00 | 0.00 | 35 | 1023.9 |
| 20260831033815 | 76 | 90 | 4.0 | 12.0 | 0.00 | 0.00 | 0.00 | 35 | 1024.0 |
| 20260831033313 | 76 | 135 | 11.0 | 11.0 | 0.00 | 0.00 | 0.00 | 36 | 1024.2 |
| 20260831033010 | 76 | 202 | 3.0 | 11.0 | 0.00 | 0.00 | 0.00 | 36 | 1024.2 |
| 20260831032509 | 76 | 135 | 7.0 | 15.0 | 0.00 | 0.00 | 0.00 | 36 | 1024.3 |
| 20260831032007 | 76 | 112 | 7.0 | 17.0 | 0.00 | 0.00 | 0.00 | 35 | 1024.4 |
| 20260831031703 | 77 | 123 | 15.0 | 15.0 | 0.00 | 0.00 | 0.00 | 36 | 1024.4 |
| 20260831031201 | 76 | 90 | 7.0 | 17.0 | 0.00 | 0.00 | 0.00 | 35 | 1024.5 |
| 20260831030759 | 76 | 112 | 15.0 | 15.0 | 0.00 | 0.00 | 0.00 | 35 | 1024.4 |
| 20260831030637 | 76 | 112 | 7.0 | 13.0 | 0.00 | 0.00 | 0.00 | 35 | 1024.5 |
| 20260831030134 | 76 | 67 | 10.0 | 17.0 | 0.00 | 0.00 | 0.00 | 34 | 1024.5 |
| 20260831025633 | 75 | 90 | 14.0 | 15.0 | 0.00 | 0.00 | 0.00 | 36 | 1024.7 |
| 20260831025129 | 75 | 112 | 8.0 | 16.0 | 0.00 | 0.00 | 0.00 | 36 | 1024.7 |
| 20260831024907 | 74 | 90 | 16.0 | 16.0 | 0.00 | 0.00 | 0.00 | 38 | 1024.9 |
| 20260831024446 | 74 | 112 | 6.0 | 15.0 | 0.00 | 0.00 | 0.00 | 39 | 1025.0 |
| 20260831024103 | 74 | 135 | 15.0 | 15.0 | 0.00 | 0.00 | 0.00 | 39 | 1025.1 |
| 20260831023602 | 74 | 90 | 8.0 | 16.0 | 0.00 | 0.00 | 0.00 | 40 | 1025.1 |
| 20260831023100 | 74 | 90 | 15.0 | 15.0 | 0.00 | 0.00 | 0.00 | 39 | 1025.1 |
| 20260831022647 | 74 | 90 | 6.0 | 13.0 | 0.00 | 0.00 | 0.00 | 39 | 1025.1 |
| 20260831022144 | 74 | 90 | 5.0 | 13.0 | 0.00 | 0.00 | 0.00 | 42 | 1025.4 |
| 20260831021642 | 74 | 135 | 11.0 | 17.0 | 0.00 | 0.00 | 0.00 | 41 | 1025.6 |
| 20260831021139 | 74 | 135 | 15.0 | 15.0 | 0.00 | 0.00 | 0.00 | 40 | 1025.5 |
| 20260831021039 | 74 | 112 | 7.0 | 17.0 | 0.00 | 0.00 | 0.00 | 40 | 1025.5 |
| 20260831020536 | 75 | 67 | 10.0 | 15.0 | 0.00 | 0.00 | 0.00 | 41 | 1025.5 |
| 20260831020034 | 74 | 90 | 9.0 | 18.0 | 0.00 | 0.00 | 0.00 | 40 | 1025.6 |
| 20260831015920 | 74 | 101 | 18.0 | 18.0 | 0.00 | 0.00 | 0.00 | 41 | 1025.6 |
| 20260831015708 | 74 | 135 | 9.0 | 18.0 | 0.00 | 0.00 | 0.00 | 42 | 1025.6 |
| 20260831015516 | 74 | 112 | 18.0 | 18.0 | 0.00 | 0.00 | 0.00 | 43 | 1025.5 |
| 20260831015135 | 73 | 135 | 9.0 | 18.0 | 0.00 | 0.00 | 0.00 | 45 | 1025.5 |
| 20260831014842 | 73 | 157 | 18.0 | 18.0 | 0.00 | 0.00 | 0.00 | 45 | 1025.6 |
| 20260831014730 | 73 | 157 | 5.0 | 15.0 | 0.00 | 0.00 | 0.00 | 45 | 1025.6 |
| 20260831014227 | 73 | 90 | 10.0 | 14.0 | 0.00 | 0.00 | 0.00 | 46 | 1025.7 |
| 20260831013723 | 72 | 90 | 14.0 | 14.0 | 0.00 | 0.00 | 0.00 | 47 | 1025.8 |
| 20260831013411 | 72 | 90 | 5.0 | 10.0 | 0.00 | 0.00 | 0.00 | 48 | 1025.9 |
| 20260831012910 | 72 | 90 | 6.0 | 14.0 | 0.00 | 0.00 | 0.00 | 48 | 1026.2 |
| 20260831012407 | 72 | 123 | 8.0 | 12.0 | 0.00 | 0.00 | 0.00 | 48 | 1026.2 |
| 20260831011904 | 73 | 123 | 8.0 | 16.0 | 0.00 | 0.00 | 0.00 | 48 | 1026.4 |
| 20260831011404 | 73 | 67 | 8.0 | 16.0 | 0.00 | 0.00 | 0.00 | 48 | 1026.5 |
| 20260831010859 | 72 | 135 | 13.0 | 15.0 | 0.00 | 0.00 | 0.00 | 48 | 1026.5 |
| 20260831010358 | 72 | 90 | 12.0 | 12.0 | 0.00 | 0.00 | 0.00 | 50 | 1026.6 |
| 20260831005935 | 72 | 135 | 3.0 | 11.0 | 0.00 | 0.00 | 0.00 | 52 | 1026.8 |
| 20260831005604 | 72 | 135 | 11.0 | 11.0 | 0.00 | 0.00 | 0.00 | 52 | 1027.0 |
| 20260831005500 | 72 | 180 | 3.0 | 10.0 | 0.00 | 0.00 | 0.00 | 52 | 1026.9 |
| 20260831004958 | 72 | 90 | 8.0 | 16.0 | 0.00 | 0.00 | 0.00 | 51 | 1027.0 |
| 20260831004756 | 72 | 112 | 16.0 | 16.0 | 0.00 | 0.00 | 0.00 | 51 | 1027.0 |
| 20260831004555 | 72 | 67 | 7.0 | 10.0 | 0.00 | 0.00 | 0.00 | 52 | 1027.0 |
| 20260831004052 | 71 | 112 | 10.0 | 12.0 | 0.00 | 0.00 | 0.00 | 52 | 1027.2 |
| 20260831003549 | 72 | 90 | 12.0 | 15.0 | 0.00 | 0.00 | 0.00 | 52 | 1027.2 |
| 20260831003047 | 71 | 90 | 8.0 | 14.0 | 0.00 | 0.00 | 0.00 | 53 | 1027.3 |
| 20260831002546 | 71 | 90 | 6.0 | 15.0 | 0.00 | 0.00 | 0.00 | 54 | 1027.3 |
| 20260831002042 | 71 | 135 | 8.0 | 10.0 | 0.00 | 0.00 | 0.00 | 55 | 1027.5 |
| 20260831001540 | 70 | 135 | 8.0 | 14.0 | 0.00 | 0.00 | 0.00 | 54 | 1027.5 |
| 20260831001039 | 70 | 112 | 7.0 | 14.0 | 0.00 | 0.00 | 0.00 | 55 | 1027.7 |
| 20260831000537 | 70 | 135 | 8.0 | 14.0 | 0.00 | 0.00 | 0.00 | 56 | 1027.6 |
| 20260831000034 | 69 | 135 | 11.0 | 15.0 | 0.00 | 0.00 | 0.00 | 57 | 1027.7 |
| 20260830235531 | 69 | 101 | 11.0 | 14.0 | 0.00 | 0.00 | 0.00 | 57 | 1027.8 |
| 20260830235031 | 69 | 112 | 10.0 | 14.0 | 0.00 | 0.00 | 0.00 | 58 | 1027.8 |
| 20260830234526 | 69 | 78 | 11.0 | 13.0 | 0.00 | 0.00 | 0.00 | 58 | 1027.7 |
| 20260830234024 | 69 | 135 | 15.0 | 15.0 | 0.00 | 0.00 | 0.00 | 58 | 1027.8 |
| 20260830233922 | 69 | 56 | 6.0 | 14.0 | 0.00 | 0.00 | 0.00 | 58 | 1027.8 |
| 20260830233520 | 69 | 135 | 14.0 | 14.0 | 0.00 | 0.00 | 0.00 | 58 | 1027.9 |
| 20260830233018 | 69 | 135 | 12.0 | 14.0 | 0.00 | 0.00 | 0.00 | 59 | 1027.9 |
| 20260830232518 | 68 | 112 | 9.0 | 13.0 | 0.00 | 0.00 | 0.00 | 60 | 1027.8 |
| 20260830232013 | 67 | 112 | 11.0 | 11.0 | 0.00 | 0.00 | 0.00 | 61 | 1027.9 |
| 20260830231511 | 67 | 135 | 13.0 | 15.0 | 0.00 | 0.00 | 0.00 | 61 | 1028.0 |
| 20260830231009 | 67 | 135 | 14.0 | 14.0 | 0.00 | 0.00 | 0.00 | 62 | 1027.9 |
| 20260830230606 | 67 | 135 | 6.0 | 14.0 | 0.00 | 0.00 | 0.00 | 62 | 1028.0 |
| 20260830230246 | 67 | 135 | 14.0 | 14.0 | 0.00 | 0.00 | 0.00 | 63 | 1028.0 |
| 20260830225812 | 67 | 135 | 5.0 | 11.0 | 0.00 | 0.00 | 0.00 | 64 | 1028.1 |
| 20260830225309 | 66 | 78 | 5.0 | 10.0 | 0.00 | 0.00 | 0.00 | 64 | 1028.1 |
| 20260830224807 | 65 | 101 | 7.0 | 10.0 | 0.00 | 0.00 | 0.00 | 65 | 1028.2 |
| 20260830224305 | 65 | 135 | 6.0 | 10.0 | 0.00 | 0.00 | 0.00 | 66 | 1028.3 |
| 20260830223802 | 65 | 180 | 7.0 | 10.0 | 0.00 | 0.00 | 0.00 | 67 | 1028.3 |
| 20260830223300 | 64 | 146 | 6.0 | 9.0 | 0.00 | 0.00 | 0.00 | 68 | 1028.3 |
| 20260830222758 | 64 | 135 | 8.0 | 9.0 | 0.00 | 0.00 | 0.00 | 68 | 1028.2 |
| 20260830222256 | 63 | 146 | 6.0 | 10.0 | 0.00 | 0.00 | 0.00 | 70 | 1028.3 |
| 20260830221754 | 63 | 135 | 10.0 | 10.0 | 0.00 | 0.00 | 0.00 | 70 | 1028.2 |
| 20260830221251 | 63 | 135 | 7.0 | 9.0 | 0.00 | 0.00 | 0.00 | 71 | 1028.4 |
| 20260830220748 | 62 | 135 | 9.0 | 11.0 | 0.00 | 0.00 | 0.00 | 73 | 1028.6 |
| 20260830220246 | 62 | 135 | 9.0 | 11.0 | 0.00 | 0.00 | 0.00 | 74 | 1028.4 |
| 20260830215242 | 60 | 135 | 7.0 | 9.0 | 0.00 | 0.00 | 0.00 | 77 | 1028.5 |
| 20260830214739 | 60 | 146 | 9.0 | 10.0 | 0.00 | 0.00 | 0.00 | 79 | 1028.6 |
| 20260830214237 | 59 | 180 | 7.0 | 10.0 | 0.00 | 0.00 | 0.00 | 81 | 1028.6 |
| 20260830213735 | 58 | 146 | 7.0 | 7.0 | 0.00 | 0.00 | 0.00 | 83 | 1028.6 |
| 20260830213233 | 56 | 135 | 5.0 | 5.0 | 0.00 | 0.00 | 0.00 | 84 | 1028.5 |
| 20260830212731 | 55 | 180 | 4.0 | 5.0 | 0.00 | 0.00 | 0.00 | 85 | 1028.4 |
| 20260830212228 | 54 | 157 | 2.0 | 3.0 | 0.00 | 0.00 | 0.00 | 84 | 1028.4 |
| 20260830211725 | 53 | 180 | 1.0 | 3.0 | 0.00 | 0.00 | 0.00 | 83 | 1028.2 |
| 20260830211223 | 52 | 135 | 1.0 | 1.0 | 0.00 | 0.00 | 0.00 | 82 | 1028.0 |
| 20260830210723 | 52 | 45 | 1.0 | 1.0 | 0.00 | 0.00 | 0.00 | 85 | 1028.1 |
| 20260830210219 | 51 | 315 | 0.0 | 1.0 | 0.00 | 0.00 | 0.00 | 84 | 1028.2 |
| 20260830205717 | 51 | 0 | 1.0 | 1.0 | 0.00 | 0.00 | 0.00 | 84 | 1028.1 |
| 20260830205214 | 51 | 315 | 0.0 | 1.0 | 0.00 | 0.00 | 0.00 | 83 | 1028.0 |
| 20260830204712 | 51 | 315 | 1.0 | 1.0 | 0.00 | 0.00 | 0.00 | 84 | 1027.9 |
| 20260830204210 | 50 | 202 | 1.0 | 1.0 | 0.00 | 0.00 | 0.00 | 85 | 1027.9 |
| 20260830203708 | 50 | 180 | 0.0 | 1.0 | 0.00 | 0.00 | 0.00 | 86 | 1027.9 |
| 20260830203205 | 50 | 225 | 1.0 | 2.0 | 0.00 | 0.00 | 0.00 | 89 | 1028.1 |
| 20260830202702 | 49 | 180 | 3.0 | 4.0 | 0.00 | 0.00 | 0.00 | 92 | 1028.1 |
| 20260830202200 | 49 | 180 | 3.0 | 3.0 | 0.00 | 0.00 | 0.00 | 87 | 1027.8 |
| 20260830201658 | 49 | 180 | 1.0 | 3.0 | 0.00 | 0.00 | 0.00 | 85 | 1027.8 |
| 20260830201159 | 49 | 180 | 1.0 | 3.0 | 0.00 | 0.00 | 0.00 | 83 | 1027.6 |
| 20260830200655 | 49 | 180 | 1.0 | 3.0 | 0.00 | 0.00 | 0.00 | 83 | 1027.5 |
| 20260830200151 | 48 | 180 | 2.0 | 2.0 | 0.00 | 0.00 | 0.00 | 82 | 1027.4 |
| 20260830195148 | 48 | 135 | 0.0 | 0.0 | 0.00 | 0.00 | 0.00 | 78 | 1027.0 |
| 20260830194646 | 49 | 135 | 0.0 | 0.0 | 0.00 | 0.00 | 0.00 | 78 | 1027.0 |
| 20260830194142 | 49 | 135 | 0.0 | 0.0 | 0.00 | 0.00 | 0.00 | 78 | 1026.8 |
| 20260830193639 | 49 | 135 | 0.0 | 0.0 | 0.00 | 0.00 | 0.00 | 78 | 1026.8 |
| 20260830193137 | 49 | 135 | 0.0 | 0.0 | 0.00 | 0.00 | 0.00 | 77 | 1026.7 |
| 20260830192635 | 49 | 135 | 0.0 | 0.0 | 0.00 | 0.00 | 0.00 | 77 | 1026.6 |
| 20260830192133 | 49 | 270 | 0.0 | 0.0 | 0.00 | 0.00 | 0.00 | 77 | 1026.5 |
| 20260830191631 | 49 | 225 | 0.0 | 0.0 | 0.00 | 0.00 | 0.00 | 76 | 1026.5 |
| 20260830190623 | 50 | 180 | 0.0 | 0.0 | 0.00 | 0.00 | 0.00 | 76 | 1026.5 |
| 20260830190123 | 50 | 90 | 0.0 | 0.0 | 0.00 | 0.00 | 0.00 | 77 | 1026.5 |
| 20260830185619 | 50 | 180 | 0.0 | 1.0 | 0.00 | 0.00 | 0.00 | 76 | 1026.4 |
| 20260830185116 | 51 | 180 | 1.0 | 1.0 | 0.00 | 0.00 | 0.00 | 76 | 1026.4 |
| 20260830184613 | 51 | 180 | 0.0 | 1.0 | 0.00 | 0.00 | 0.00 | 75 | 1026.4 |
| 20260830184111 | 51 | 180 | 0.0 | 1.0 | 0.00 | 0.00 | 0.00 | 74 | 1026.3 |
| 20260830183609 | 52 | 135 | 0.0 | 0.0 | 0.00 | 0.00 | 0.00 | 74 | 1026.2 |
| 20260830183107 | 52 | 135 | 0.0 | 0.0 | 0.00 | 0.00 | 0.00 | 74 | 1026.2 |
| 20260830182605 | 53 | 270 | 0.0 | 1.0 | 0.00 | 0.00 | 0.00 | 74 | 1026.2 |
| 20260830182103 | 53 | 270 | 0.0 | 0.0 | 0.00 | 0.00 | 0.00 | 73 | 1026.1 |
| 20260830181600 | 53 | 270 | 0.0 | 0.0 | 0.00 | 0.00 | 0.00 | 73 | 1026.0 |
| 20260830181058 | 54 | 270 | 0.0 | 0.0 | 0.00 | 0.00 | 0.00 | 72 | 1026.0 |
| 20260830180556 | 54 | 180 | 0.0 | 0.0 | 0.00 | 0.00 | 0.00 | 72 | 1026.1 |
| 20260830180053 | 55 | 180 | 0.0 | 1.0 | 0.00 | 0.00 | 0.00 | 73 | 1026.0 |
| 20260830175551 | 55 | 180 | 1.0 | 1.0 | 0.00 | 0.00 | 0.00 | 74 | 1026.1 |
| 20260830175048 | 55 | 180 | 1.0 | 2.0 | 0.00 | 0.00 | 0.00 | 73 | 1026.1 |
| 20260830174546 | 56 | 180 | 2.0 | 2.0 | 0.00 | 0.00 | 0.00 | 76 | 1026.2 |
| 20260830174044 | 56 | 180 | 1.0 | 2.0 | 0.00 | 0.00 | 0.00 | 75 | 1026.2 |
| 20260830173542 | 56 | 180 | 1.0 | 3.0 | 0.00 | 0.00 | 0.00 | 76 | 1026.3 |
| 20260830173040 | 56 | 168 | 2.0 | 2.0 | 0.00 | 0.00 | 0.00 | 75 | 1026.3 |
| 20260830172538 | 56 | 146 | 1.0 | 2.0 | 0.00 | 0.00 | 0.00 | 75 | 1026.2 |
| 20260830172035 | 56 | 157 | 3.0 | 3.0 | 0.00 | 0.00 | 0.00 | 75 | 1026.3 |
| 20260830171533 | 56 | 191 | 3.0 | 3.0 | 0.00 | 0.00 | 0.00 | 76 | 1026.3 |
| 20260830171030 | 56 | 180 | 2.0 | 3.0 | 0.00 | 0.00 | 0.00 | 75 | 1026.2 |
| 20260830170528 | 56 | 146 | 2.0 | 3.0 | 0.00 | 0.00 | 0.00 | 74 | 1026.3 |
| 20260830170025 | 56 | 157 | 3.0 | 3.0 | 0.00 | 0.00 | 0.00 | 74 | 1026.3 |
| 20260830165523 | 56 | 191 | 3.0 | 3.0 | 0.00 | 0.00 | 0.00 | 74 | 1026.2 |
| 20260830165021 | 56 | 180 | 2.0 | 3.0 | 0.00 | 0.00 | 0.00 | 74 | 1026.3 |
| 20260830164519 | 56 | 180 | 2.0 | 3.0 | 0.00 | 0.00 | 0.00 | 73 | 1026.3 |
| 20260830164017 | 56 | 180 | 2.0 | 3.0 | 0.00 | 0.00 | 0.00 | 73 | 1026.2 |
| 20260830163515 | 56 | 180 | 3.0 | 3.0 | 0.00 | 0.00 | 0.00 | 73 | 1026.3 |
| 20260830163012 | 56 | 180 | 3.0 | 3.0 | 0.00 | 0.00 | 0.00 | 73 | 1026.2 |
| 20260830162510 | 56 | 180 | 3.0 | 3.0 | 0.00 | 0.00 | 0.00 | 71 | 1026.2 |
| 20260830162010 | 56 | 191 | 2.0 | 3.0 | 0.00 | 0.00 | 0.00 | 70 | 1026.2 |
| 20260830161505 | 57 | 180 | 2.0 | 2.0 | 0.00 | 0.00 | 0.00 | 70 | 1026.1 |
| 20260830161003 | 57 | 180 | 1.0 | 1.0 | 0.00 | 0.00 | 0.00 | 69 | 1026.2 |
| 20260830160500 | 57 | 180 | 0.0 | 1.0 | 0.00 | 0.00 | 0.00 | 69 | 1026.3 |
| 20260830155958 | 57 | 225 | 0.0 | 0.0 | 0.00 | 0.00 | 0.00 | 69 | 1026.2 |
| 20260830155456 | 57 | 90 | 0.0 | 0.0 | 0.00 | 0.00 | 0.00 | 69 | 1026.1 |
| 20260830154954 | 57 | 90 | 0.0 | 0.0 | 0.00 | 0.00 | 0.00 | 68 | 1026.1 |
| 20260830153949 | 58 | 90 | 0.0 | 0.0 | 0.00 | 0.00 | 0.00 | 68 | 1026.1 |
| 20260830153447 | 58 | 90 | 0.0 | 0.0 | 0.00 | 0.00 | 0.00 | 67 | 1026.0 |
| 20260830152945 | 58 | 90 | 0.0 | 1.0 | 0.00 | 0.00 | 0.00 | 67 | 1026.0 |
| 20260830152442 | 58 | 90 | 1.0 | 2.0 | 0.00 | 0.00 | 0.00 | 67 | 1026.2 |
| 20260830151940 | 58 | 78 | 1.0 | 2.0 | 0.00 | 0.00 | 0.00 | 67 | 1026.1 |
| 20260830151438 | 58 | 90 | 1.0 | 1.0 | 0.00 | 0.00 | 0.00 | 66 | 1026.1 |
| 20260830150935 | 58 | 90 | 1.0 | 2.0 | 0.00 | 0.00 | 0.00 | 66 | 1026.2 |
| 20260830145931 | 58 | 135 | 1.0 | 1.0 | 0.00 | 0.00 | 0.00 | 63 | 1026.1 |
| 20260830145429 | 58 | 78 | 0.0 | 0.0 | 0.00 | 0.00 | 0.00 | 62 | 1026.1 |
| 20260830144927 | 58 | 90 | 0.0 | 0.0 | 0.00 | 0.00 | 0.00 | 62 | 1026.2 |
| 20260830144424 | 58 | 90 | 1.0 | 1.0 | 0.00 | 0.00 | 0.00 | 61 | 1026.0 |
| 20260830143922 | 58 | 135 | 0.0 | 1.0 | 0.00 | 0.00 | 0.00 | 60 | 1026.1 |
| 20260830143419 | 58 | 90 | 0.0 | 1.0 | 0.00 | 0.00 | 0.00 | 60 | 1026.2 |
| 20260830142917 | 58 | 90 | 1.0 | 1.0 | 0.00 | 0.00 | 0.00 | 60 | 1026.3 |
| 20260830142415 | 58 | 45 | 1.0 | 1.0 | 0.00 | 0.00 | 0.00 | 59 | 1026.3 |
| 20260830141913 | 58 | 45 | 0.0 | 2.0 | 0.00 | 0.00 | 0.00 | 58 | 1026.4 |
| 20260830141410 | 59 | 45 | 1.0 | 2.0 | 0.00 | 0.00 | 0.00 | 58 | 1026.3 |
| 20260830140908 | 59 | 45 | 1.0 | 1.0 | 0.00 | 0.00 | 0.00 | 57 | 1026.3 |
| 20260830140406 | 59 | 90 | 0.0 | 1.0 | 0.00 | 0.00 | 0.00 | 57 | 1026.3 |
| 20260830135904 | 59 | 45 | 0.0 | 1.0 | 0.00 | 0.00 | 0.00 | 56 | 1026.3 |
| 20260830135402 | 59 | 135 | 0.0 | 1.0 | 0.00 | 0.00 | 0.00 | 56 | 1026.3 |
| 20260830134859 | 60 | 135 | 0.0 | 1.0 | 0.00 | 0.00 | 0.00 | 55 | 1026.3 |
| 20260830134356 | 60 | 135 | 0.0 | 1.0 | 0.00 | 0.00 | 0.00 | 54 | 1026.3 |
| 20260830133854 | 60 | 135 | 0.0 | 1.0 | 0.00 | 0.00 | 0.00 | 54 | 1026.3 |
| 20260830133352 | 60 | 135 | 1.0 | 1.0 | 0.00 | 0.00 | 0.00 | 54 | 1026.2 |
| 20260830132850 | 60 | 90 | 1.0 | 1.0 | 0.00 | 0.00 | 0.00 | 53 | 1026.2 |
| 20260830132347 | 60 | 135 | 1.0 | 1.0 | 0.00 | 0.00 | 0.00 | 53 | 1026.2 |
| 20260830131845 | 60 | 112 | 1.0 | 1.0 | 0.00 | 0.00 | 0.00 | 53 | 1026.2 |
| 20260830131343 | 60 | 90 | 0.0 | 0.0 | 0.00 | 0.00 | 0.00 | 52 | 1026.1 |
| 20260830130841 | 60 | 90 | 1.0 | 1.0 | 0.00 | 0.00 | 0.00 | 52 | 1026.2 |
| 20260830130339 | 60 | 135 | 0.0 | 0.0 | 0.00 | 0.00 | 0.00 | 52 | 1026.0 |
| 20260830125836 | 61 | 90 | 0.0 | 1.0 | 0.00 | 0.00 | 0.00 | 52 | 1026.0 |
| 20260830125333 | 61 | 90 | 0.0 | 1.0 | 0.00 | 0.00 | 0.00 | 51 | 1026.0 |
| 20260830124831 | 61 | 90 | 0.0 | 0.0 | 0.00 | 0.00 | 0.00 | 51 | 1025.9 |
| 20260830124329 | 61 | 90 | 0.0 | 1.0 | 0.00 | 0.00 | 0.00 | 50 | 1025.9 |
| 20260830123827 | 61 | 67 | 1.0 | 1.0 | 0.00 | 0.00 | 0.00 | 50 | 1026.0 |
| 20260830123325 | 61 | 135 | 0.0 | 1.0 | 0.00 | 0.00 | 0.00 | 50 | 1025.8 |
| 20260830122822 | 61 | 135 | 1.0 | 1.0 | 0.00 | 0.00 | 0.00 | 49 | 1025.8 |
| 20260830122320 | 61 | 90 | 0.0 | 1.0 | 0.00 | 0.00 | 0.00 | 49 | 1025.7 |
| 20260830121818 | 62 | 78 | 1.0 | 2.0 | 0.00 | 0.00 | 0.00 | 49 | 1025.8 |
| 20260830120810 | 62 | 135 | 2.0 | 3.0 | 0.00 | 0.00 | 0.00 | 48 | 1025.7 |
| 20260830120307 | 62 | 157 | 2.0 | 3.0 | 0.00 | 0.00 | 0.00 | 48 | 1025.6 |
| 20260830115300 | 62 | 135 | 2.0 | 2.0 | 0.00 | 0.00 | 0.00 | 48 | 1025.6 |
| 20260830114758 | 62 | 135 | 3.0 | 3.0 | 0.00 | 0.00 | 0.00 | 48 | 1025.7 |
| 20260830114256 | 62 | 135 | 2.0 | 4.0 | 0.00 | 0.00 | 0.00 | 48 | 1025.6 |
| 20260830113755 | 62 | 180 | 2.0 | 3.0 | 0.00 | 0.00 | 0.00 | 47 | 1025.3 |
| 20260830113251 | 63 | 135 | 1.0 | 3.0 | 0.00 | 0.00 | 0.00 | 46 | 1025.3 |
| 20260830112749 | 63 | 180 | 3.0 | 3.0 | 0.00 | 0.00 | 0.00 | 47 | 1025.2 |
| 20260830112247 | 62 | 202 | 3.0 | 3.0 | 0.00 | 0.00 | 0.00 | 47 | 1025.2 |
| 20260830111747 | 62 | 180 | 3.0 | 4.0 | 0.00 | 0.00 | 0.00 | 47 | 1025.2 |
| 20260830111241 | 62 | 180 | 3.0 | 4.0 | 0.00 | 0.00 | 0.00 | 47 | 1025.2 |
| 20260830110739 | 62 | 180 | 2.0 | 2.0 | 0.00 | 0.00 | 0.00 | 47 | 1025.2 |
| 20260830110238 | 62 | 180 | 3.0 | 4.0 | 0.00 | 0.00 | 0.00 | 47 | 1025.2 |
| 20260830105736 | 62 | 180 | 2.0 | 2.0 | 0.00 | 0.00 | 0.00 | 46 | 1025.1 |
| 20260830105234 | 62 | 146 | 1.0 | 2.0 | 0.00 | 0.00 | 0.00 | 46 | 1025.2 |
| 20260830104732 | 62 | 180 | 3.0 | 4.0 | 0.00 | 0.00 | 0.00 | 46 | 1025.0 |
| 20260830104231 | 62 | 180 | 4.0 | 4.0 | 0.00 | 0.00 | 0.00 | 46 | 1025.1 |
| 20260830103726 | 62 | 180 | 3.0 | 3.0 | 0.00 | 0.00 | 0.00 | 45 | 1025.0 |
| 20260830103225 | 63 | 180 | 2.0 | 3.0 | 0.00 | 0.00 | 0.00 | 45 | 1024.9 |
| 20260830102721 | 63 | 180 | 1.0 | 1.0 | 0.00 | 0.00 | 0.00 | 44 | 1024.9 |
| 20260830102219 | 64 | 180 | 1.0 | 2.0 | 0.00 | 0.00 | 0.00 | 44 | 1024.8 |
| 20260830101718 | 64 | 180 | 1.0 | 3.0 | 0.00 | 0.00 | 0.00 | 44 | 1024.8 |
| 20260830101214 | 65 | 180 | 2.0 | 3.0 | 0.00 | 0.00 | 0.00 | 43 | 1024.7 |
| 20260830100713 | 65 | 168 | 2.0 | 3.0 | 0.00 | 0.00 | 0.00 | 43 | 1024.8 |
| 20260830100211 | 65 | 168 | 5.0 | 5.0 | 0.00 | 0.00 | 0.00 | 43 | 1024.7 |
| 20260830095708 | 65 | 180 | 4.0 | 4.0 | 0.00 | 0.00 | 0.00 | 43 | 1024.6 |
| 20260830095205 | 65 | 180 | 4.0 | 6.0 | 0.00 | 0.00 | 0.00 | 44 | 1024.5 |
| 20260830094703 | 65 | 180 | 3.0 | 4.0 | 0.00 | 0.00 | 0.00 | 43 | 1024.5 |
| 20260830094201 | 65 | 180 | 4.0 | 4.0 | 0.00 | 0.00 | 0.00 | 44 | 1024.4 |
| 20260830093658 | 65 | 180 | 3.0 | 4.0 | 0.00 | 0.00 | 0.00 | 43 | 1024.4 |
| 20260830093156 | 65 | 157 | 3.0 | 4.0 | 0.00 | 0.00 | 0.00 | 43 | 1024.2 |
| 20260830092653 | 66 | 180 | 4.0 | 4.0 | 0.00 | 0.00 | 0.00 | 42 | 1024.2 |
| 20260830092151 | 66 | 157 | 3.0 | 3.0 | 0.00 | 0.00 | 0.00 | 42 | 1024.1 |
| 20260830091649 | 66 | 135 | 4.0 | 4.0 | 0.00 | 0.00 | 0.00 | 41 | 1023.9 |
| 20260830091147 | 67 | 168 | 3.0 | 4.0 | 0.00 | 0.00 | 0.00 | 41 | 1023.9 |
| 20260830090645 | 67 | 168 | 3.0 | 3.0 | 0.00 | 0.00 | 0.00 | 40 | 1023.9 |
| 20260830090142 | 67 | 180 | 3.0 | 4.0 | 0.00 | 0.00 | 0.00 | 40 | 1023.7 |
| 20260830085642 | 68 | 180 | 3.0 | 3.0 | 0.00 | 0.00 | 0.00 | 40 | 1023.7 |
| 20260830085139 | 68 | 180 | 2.0 | 3.0 | 0.00 | 0.00 | 0.00 | 40 | 1023.7 |
| 20260830084635 | 69 | 180 | 3.0 | 3.0 | 0.00 | 0.00 | 0.00 | 39 | 1023.7 |
| 20260830084135 | 69 | 180 | 3.0 | 4.0 | 0.00 | 0.00 | 0.00 | 39 | 1023.6 |
| 20260830083630 | 70 | 180 | 2.0 | 3.0 | 0.00 | 0.00 | 0.00 | 38 | 1023.5 |
| 20260830083128 | 70 | 180 | 2.0 | 3.0 | 0.00 | 0.00 | 0.00 | 38 | 1023.4 |
| 20260830082627 | 71 | 180 | 3.0 | 4.0 | 0.00 | 0.00 | 0.00 | 37 | 1023.4 |
| 20260830082124 | 71 | 180 | 3.0 | 3.0 | 0.00 | 0.00 | 0.00 | 36 | 1023.5 |
| 20260830081622 | 72 | 157 | 4.0 | 4.0 | 0.00 | 0.00 | 0.00 | 36 | 1023.2 |
| 20260830081120 | 72 | 180 | 3.0 | 3.0 | 0.00 | 0.00 | 0.00 | 35 | 1023.3 |
| 20260830080619 | 73 | 180 | 2.0 | 4.0 | 0.00 | 0.00 | 0.00 | 35 | 1023.1 |
| 20260830080116 | 73 | 135 | 4.0 | 4.0 | 0.00 | 0.00 | 0.00 | 34 | 1023.0 |
| 20260830075612 | 74 | 135 | 3.0 | 4.0 | 0.00 | 0.00 | 0.00 | 34 | 1023.1 |
| 20260830075111 | 74 | 135 | 3.0 | 4.0 | 0.00 | 0.00 | 0.00 | 33 | 1022.9 |
| 20260830073601 | 75 | 112 | 4.0 | 7.0 | 0.00 | 0.00 | 0.00 | 32 | 1022.7 |
| 20260830073101 | 76 | 135 | 6.0 | 6.0 | 0.00 | 0.00 | 0.00 | 32 | 1022.6 |
| 20260830072558 | 76 | 135 | 5.0 | 8.0 | 0.00 | 0.00 | 0.00 | 32 | 1022.6 |
| 20260830072056 | 76 | 135 | 4.0 | 7.0 | 0.00 | 0.00 | 0.00 | 32 | 1022.6 |
| 20260830071553 | 77 | 135 | 6.0 | 7.0 | 0.00 | 0.00 | 0.00 | 31 | 1022.6 |
| 20260830071051 | 77 | 157 | 7.0 | 9.0 | 0.00 | 0.00 | 0.00 | 31 | 1022.6 |
| 20260830070550 | 77 | 135 | 6.0 | 11.0 | 0.00 | 0.00 | 0.00 | 31 | 1022.5 |
| 20260830070047 | 77 | 135 | 8.0 | 10.0 | 0.00 | 0.00 | 0.00 | 31 | 1022.5 |
| 20260830065544 | 77 | 90 | 8.0 | 10.0 | 0.00 | 0.00 | 0.00 | 30 | 1022.4 |
| 20260830065042 | 77 | 112 | 9.0 | 14.0 | 0.00 | 0.00 | 0.00 | 30 | 1022.4 |
| 20260830064539 | 78 | 112 | 14.0 | 14.0 | 0.00 | 0.00 | 0.00 | 30 | 1022.4 |
| 20260830064147 | 78 | 135 | 5.0 | 7.0 | 0.00 | 0.00 | 0.00 | 31 | 1022.4 |
| 20260830063646 | 78 | 135 | 4.0 | 5.0 | 0.00 | 0.00 | 0.00 | 31 | 1022.3 |
| 20260830063143 | 78 | 90 | 4.0 | 6.0 | 0.00 | 0.00 | 0.00 | 30 | 1022.4 |
| 20260830062641 | 78 | 135 | 7.0 | 10.0 | 0.00 | 0.00 | 0.00 | 30 | 1022.4 |
| 20260830062138 | 79 | 135 | 8.0 | 12.0 | 0.00 | 0.00 | 0.00 | 29 | 1022.4 |
| 20260830061638 | 79 | 135 | 10.0 | 15.0 | 0.00 | 0.00 | 0.00 | 29 | 1022.3 |
| 20260830061134 | 79 | 135 | 12.0 | 17.0 | 0.00 | 0.00 | 0.00 | 29 | 1022.4 |
| 20260830060630 | 79 | 90 | 12.0 | 12.0 | 0.00 | 0.00 | 0.00 | 29 | 1022.2 |
| 20260830060127 | 78 | 90 | 9.0 | 10.0 | 0.00 | 0.00 | 0.00 | 29 | 1022.3 |
| 20260830055626 | 79 | 112 | 8.0 | 10.0 | 0.00 | 0.00 | 0.00 | 29 | 1022.4 |
| 20260830055124 | 79 | 112 | 12.0 | 15.0 | 0.00 | 0.00 | 0.00 | 28 | 1022.4 |
| 20260830054623 | 79 | 135 | 10.0 | 11.0 | 0.00 | 0.00 | 0.00 | 29 | 1022.4 |
| 20260830054121 | 79 | 135 | 15.0 | 15.0 | 0.00 | 0.00 | 0.00 | 29 | 1022.4 |